This demonstration page uses our WeatherBlox Daily Observations layout. Learn more.

Left ArrowRight Arrow

Hourly Observations for May 27, 2017

Temp ( °F °C ) Dew Point ( °F °C ) Humidity (%) Winds ( mph kmh ) Pressure ( in mb ) Visibility ( mi km ) Precip ( " mm )
12:56 am 00:56 Clear 64 17.6 49 9.7 60 60 N 7 11 29.86 1011 10 16 0.00 0.00
1:56 am 01:56 Clear 62 16.4 48 9.1 62 62 Calm 29.88 1012 10 16 0.00 0.00
2:56 am 02:56 Mostly Clear 60 15.5 51 10.3 71 71 NNE 5 7 29.86 1011 10 16 0.00 0.00
3:56 am 03:56 Mostly Cloudy 61 16 49 9.6 66 66 NNE 6 9 29.86 1011 10 16 0.00 0.00
4:56 am 04:56 Mostly Clear 61 15.9 47 8.6 62 62 NNE 5 7 29.84 1011 10 16 0.00 0.00
5:56 am 05:56 Sunny 61 16.2 45 7.4 56 56 Calm 29.86 1011 10 16 0.00 0.00
6:56 am 06:56 Mostly Sunny 60 15.4 48 8.8 65 65 ENE 6 9 29.85 1011 10 16 0.00 0.00
7:56 am 07:56 Partly Cloudy 63 17.3 47 8.2 55 55 NE 5 7 29.85 1011 10 16 0.00 0.00
8:35 am 08:35 Mostly Cloudy with Light Rain and Scattered Storms 64 18 48 9 56 56 SW 17 28 29.91 1013 10 16 0.00 0.00
8:41 am 08:41 Windy with Storms Likely 63 17 50 10 64 64 WSW 23 37 29.92 1013 10 16 0.00 0.00
8:56 am 08:56 Mostly Cloudy with Strong Thunderstorms 59 15.2 53 11.4 78 78 WSW 6 9 29.94 1014 9 14 0.09 2.29
8:57 am 08:57 Mostly Cloudy with Heavy Rain and Scattered Storms 59 15 54 12 82 82 WSW 7 11 29.94 1014 8 13 0.00 0.00
9:56 am 09:56 Mostly Cloudy with Heavy Rain 56 13.6 53 11.6 88 88 NNW 10 17 29.90 1012 8 13 0.22 5.59
10:11 am 10:11 Sunny 57 14 54 12 88 88 NNW 10 17 29.89 1012 10 16 0.00 0.00
10:20 am 10:20 Sunny with Rain and Nearby Thunderstorms 57 14 54 12 88 88 NNW 9 15 29.90 1012 10 16 0.00 0.00
10:45 am 10:45 Sunny 57 14 54 12 88 88 NNE 16 26 29.88 1012 7 11 0.00 0.00
10:50 am 10:50 Sunny with Rain 57 14 54 12 88 88 NE 16 26 29.86 1011 6 10 0.00 0.00
10:56 am 10:56 Sunny with Rain 57 14.1 54 12.1 88 88 NNE 14 22 29.83 1010 6 10 0.09 2.29
11:01 am 11:01 Sunny 57 14 54 12 88 88 N 16 26 29.84 1010 7 11 0.00 0.00
11:56 am 11:56 Mostly Sunny 62 16.9 56 13.6 81 81 NNE 12 19 29.88 1012 10 16 0.02 0.51
12:56 pm 12:56 Partly Cloudy 66 19.1 59 14.8 76 76 ENE 12 19 29.87 1012 10 16 0.00 0.00
1:56 pm 13:56 Mostly Sunny 69 20.8 60 15.6 72 72 NNE 10 17 29.85 1011 10 16 0.00 0.00
2:56 pm 14:56 Partly Cloudy 70 21.1 59 14.9 68 68 NNE 8 13 29.84 1011 10 16 0.00 0.00
3:56 pm 15:56 Mostly Cloudy 71 21.9 59 15 65 65 NE 9 15 29.86 1011 10 16 0.00 0.00
4:56 pm 16:56 Mostly Cloudy 69 20.3 57 14 67 67 ENE 12 19 29.88 1012 10 16 0.00 0.00
5:56 pm 17:56 Sunny 71 21.5 56 13.1 59 59 NE 7 11 29.89 1012 10 16 0.00 0.00
6:56 pm 18:56 Mostly Sunny 69 20.7 55 12.9 61 61 NE 5 7 29.89 1012 10 16 0.00 0.00
7:56 pm 19:56 Mostly Cloudy 69 20.3 55 12.8 62 62 Calm 29.88 1012 10 16 0.00 0.00
8:56 pm 20:56 Mostly Cloudy 66 18.7 54 12.4 67 67 NW 5 7 29.89 1012 10 16 0.00 0.00
9:56 pm 21:56 Mostly Clear 60 15.3 55 12.8 85 85 NNW 3 6 29.90 1013 10 16 0.00 0.00
10:56 pm 22:56 Clear 57 14 55 12.5 91 91 NW 5 7 29.91 1013 10 16 0.00 0.00
11:56 pm 23:56 Clear 57 14 54 12 88 88 WNW 8 13 29.93 1013 10 16 0.00 0.00

Powered by AerisWeather